Time,TemperatureF,DewpointF,PressureIn,WindDirection,WindDirectionDegrees,WindSpeedMPH,WindSpeedGustMPH,Humidity,HourlyPrecipIn,Conditions,Clouds,dailyrainin,SoftwareType,DateUTC
2013-02-17 00:00:00,25.2,6.8,29.86,NNE,20,10.0,10.0,45,0.00,OVC,OVC,0.00,WeatherDisplay:10.37,2013-02-17 05:00:00,
2013-02-17 00:01:00,25.2,6.8,29.86,NNE,20,10.4,10.4,45,0.00,OVC,,0.00,WeatherDisplay:10.37,2013-02-17 05:01:00,
2013-02-17 00:06:00,25.0,6.6,29.86,NNE,20,10.4,10.4,45,0.00,OVC,,0.00,WeatherDisplay:10.37,2013-02-17 05:06:00,
2013-02-17 00:11:00,25.0,6.6,29.86,NNE,20,10.4,10.4,45,0.00,OVC,,0.00,WeatherDisplay:10.37,2013-02-17 05:11:00,
2013-02-17 00:16:00,25.0,9.8,29.86,North,10,11.5,11.5,52,0.00,OVC,,0.00,WeatherDisplay:10.37,2013-02-17 05:16:00,
2013-02-17 00:21:00,24.8,9.6,29.86,North,10,11.5,11.5,52,0.00,OVC,,0.00,WeatherDisplay:10.37,2013-02-17 05:21:00,
2013-02-17 00:26:00,24.6,9.5,29.86,North,10,11.5,11.5,52,0.00,OVC,,0.00,WeatherDisplay:10.37,2013-02-17 05:26:00,
2013-02-17 00:31:00,24.6,9.5,29.83,North,10,11.5,11.5,52,0.00,OVC,,0.00,WeatherDisplay:10.37,2013-02-17 05:31:00,
2013-02-17 00:36:00,24.4,9.3,29.83,North,10,11.5,11.5,52,0.00,OVC,,0.00,WeatherDisplay:10.37,2013-02-17 05:36:00,
2013-02-17 00:41:00,24.4,9.3,29.83,North,10,11.5,11.5,52,0.00,OVC,,0.00,WeatherDisplay:10.37,2013-02-17 05:41:00,
2013-02-17 00:46:00,24.3,9.1,29.83,North,10,11.5,11.5,52,0.00,OVC,,0.00,WeatherDisplay:10.37,2013-02-17 05:46:00,
2013-02-17 00:51:00,24.4,9.3,29.83,North,10,11.5,11.5,52,0.00,OVC,,0.00,WeatherDisplay:10.37,2013-02-17 05:51:00,
2013-02-17 00:56:00,24.3,9.1,29.83,North,10,11.5,11.5,52,0.00,OVC,,0.00,WeatherDisplay:10.37,2013-02-17 05:56:00,
2013-02-17 01:01:00,24.3,10.0,29.83,North,10,9.2,11.5,54,0.00,OVC,,0.00,WeatherDisplay:10.37,2013-02-17 06:01:00,
2013-02-17 01:06:00,24.3,10.0,29.83,North,10,9.2,9.2,54,0.00,OVC,,0.00,WeatherDisplay:10.37,2013-02-17 06:06:00,
2013-02-17 01:11:00,24.3,10.0,29.83,North,10,9.2,9.2,54,0.00,OVC,,0.00,WeatherDisplay:10.37,2013-02-17 06:11:00,
2013-02-17 01:16:00,24.1,9.8,29.83,North,10,9.2,9.2,54,0.00,OVC,,0.00,WeatherDisplay:10.37,2013-02-17 06:16:00,
2013-02-17 01:21:00,24.1,9.8,29.83,North,10,9.2,9.2,54,0.00,OVC,,0.00,WeatherDisplay:10.37,2013-02-17 06:21:00,
2013-02-17 01:26:00,24.1,9.8,29.83,North,10,9.2,9.2,54,0.00,OVC,,0.00,WeatherDisplay:10.37,2013-02-17 06:26:00,
2013-02-17 01:31:00,23.9,9.6,29.83,North,10,9.2,9.2,54,0.00,OVC,,0.00,WeatherDisplay:10.37,2013-02-17 06:31:00,
2013-02-17 01:36:00,23.9,9.6,29.83,North,10,9.2,9.2,54,0.00,OVC,,0.00,WeatherDisplay:10.37,2013-02-17 06:36:00,
2013-02-17 01:41:00,23.9,9.6,29.83,North,10,9.2,9.2,54,0.00,OVC,,0.00,WeatherDisplay:10.37,2013-02-17 06:41:00,
2013-02-17 01:46:00,23.7,9.5,29.83,North,10,9.2,9.2,54,0.00,OVC,,0.00,WeatherDisplay:10.37,2013-02-17 06:46:00,
2013-02-17 01:51:00,23.7,9.5,29.83,North,10,9.2,9.2,54,0.00,OVC,,0.00,WeatherDisplay:10.37,2013-02-17 06:51:00,
2013-02-17 01:56:00,23.7,9.5,29.83,North,10,9.2,9.2,54,0.00,OVC,,0.00,WeatherDisplay:10.37,2013-02-17 06:56:00,
2013-02-17 02:01:00,23.7,9.5,29.81,North,10,9.2,9.2,54,0.00,OVC,,0.00,WeatherDisplay:10.37,2013-02-17 07:01:00,
2013-02-17 02:06:00,23.5,9.3,29.81,North,10,9.2,9.2,54,0.00,OVC,,0.00,WeatherDisplay:10.37,2013-02-17 07:06:00,
2013-02-17 02:11:00,23.5,9.3,29.81,North,10,9.2,9.2,54,0.00,OVC,,0.00,WeatherDisplay:10.37,2013-02-17 07:11:00,
2013-02-17 02:16:00,23.5,9.3,29.81,North,10,9.2,9.2,54,0.00,OVC,,0.00,WeatherDisplay:10.37,2013-02-17 07:16:00,
2013-02-17 02:21:00,23.5,9.3,29.81,North,10,9.2,9.2,54,0.00,OVC,,0.00,WeatherDisplay:10.37,2013-02-17 07:21:00,
2013-02-17 02:26:00,23.5,9.3,29.81,North,10,9.2,9.2,54,0.00,OVC,,0.00,WeatherDisplay:10.37,2013-02-17 07:26:00,
2013-02-17 02:31:00,23.5,9.3,29.81,North,10,9.2,9.2,54,0.00,OVC,,0.00,WeatherDisplay:10.37,2013-02-17 07:31:00,
2013-02-17 02:36:00,23.5,9.3,29.81,North,10,9.2,9.2,54,0.00,OVC,,0.00,WeatherDisplay:10.37,2013-02-17 07:36:00,
2013-02-17 02:41:00,23.5,9.3,29.81,North,10,9.2,9.2,54,0.00,OVC,,0.00,WeatherDisplay:10.37,2013-02-17 07:41:00,
2013-02-17 02:46:00,23.5,9.3,29.81,North,10,9.2,9.2,54,0.00,OVC,,0.00,WeatherDisplay:10.37,2013-02-17 07:46:00,
2013-02-17 02:51:00,23.5,9.3,29.81,North,10,9.2,9.2,54,0.00,OVC,,0.00,WeatherDisplay:10.37,2013-02-17 07:51:00,
2013-02-17 02:56:00,23.5,9.3,29.81,North,10,9.2,9.2,54,0.00,OVC,,0.00,WeatherDisplay:10.37,2013-02-17 07:56:00,
2013-02-17 03:01:00,23.5,9.3,29.81,North,10,9.2,9.2,54,0.00,OVC,,0.00,WeatherDisplay:10.37,2013-02-17 08:01:00,
2013-02-17 03:06:00,23.5,9.3,29.81,North,10,9.2,9.2,54,0.00,OVC,,0.00,WeatherDisplay:10.37,2013-02-17 08:06:00,
2013-02-17 03:11:00,23.5,9.3,29.81,North,10,9.2,9.2,54,0.00,OVC,,0.00,WeatherDisplay:10.37,2013-02-17 08:11:00,
2013-02-17 03:16:00,23.5,8.0,29.81,North,10,8.1,9.2,51,0.00,OVC,,0.00,WeatherDisplay:10.37,2013-02-17 08:16:00,
2013-02-17 03:21:00,23.5,8.0,29.81,North,10,8.1,8.1,51,0.00,OVC,,0.00,WeatherDisplay:10.37,2013-02-17 08:21:00,
2013-02-17 03:26:00,23.5,8.0,29.81,North,10,8.1,8.1,51,0.00,OVC,,0.00,WeatherDisplay:10.37,2013-02-17 08:26:00,
2013-02-17 03:31:00,23.5,8.0,29.81,North,10,8.1,8.1,51,0.00,OVC,,0.00,WeatherDisplay:10.37,2013-02-17 08:31:00,
2013-02-17 03:36:00,23.4,7.9,29.81,North,10,8.1,8.1,51,0.00,OVC,,0.00,WeatherDisplay:10.37,2013-02-17 08:36:00,
2013-02-17 03:41:00,23.4,7.9,29.81,North,10,8.1,8.1,51,0.00,OVC,,0.00,WeatherDisplay:10.37,2013-02-17 08:41:00,
2013-02-17 03:46:00,23.4,7.9,29.81,North,10,8.1,8.1,51,0.00,OVC,,0.00,WeatherDisplay:10.37,2013-02-17 08:46:00,
2013-02-17 03:51:00,23.2,7.7,29.81,North,10,8.1,8.1,51,0.00,OVC,,0.00,WeatherDisplay:10.37,2013-02-17 08:51:00,
2013-02-17 03:56:00,23.2,7.7,29.81,North,10,8.1,8.1,51,0.00,OVC,,0.00,WeatherDisplay:10.37,2013-02-17 08:56:00,
2013-02-17 04:01:00,23.0,7.5,29.77,North,10,8.1,8.1,51,0.00,OVC,,0.00,WeatherDisplay:10.37,2013-02-17 09:01:00,
2013-02-17 04:06:00,23.0,7.5,29.77,North,10,8.1,8.1,51,0.00,OVC,,0.00,WeatherDisplay:10.37,2013-02-17 09:06:00,
2013-02-17 04:11:00,23.0,7.5,29.77,North,10,8.1,8.1,51,0.00,OVC,,0.00,WeatherDisplay:10.37,2013-02-17 09:11:00,
2013-02-17 04:16:00,23.0,7.5,29.77,North,360,10.4,10.4,51,0.00,OVC,,0.00,WeatherDisplay:10.37,2013-02-17 09:16:00,
2013-02-17 04:21:00,22.8,7.4,29.77,North,360,10.4,10.4,51,0.00,OVC,,0.00,WeatherDisplay:10.37,2013-02-17 09:21:00,
2013-02-17 04:26:00,22.8,7.4,29.77,North,360,10.4,10.4,51,0.00,OVC,,0.00,WeatherDisplay:10.37,2013-02-17 09:26:00,
2013-02-17 04:31:00,22.6,7.2,29.77,North,360,10.4,10.4,51,0.00,OVC,,0.00,WeatherDisplay:10.37,2013-02-17 09:31:00,
2013-02-17 04:36:00,22.6,7.2,29.77,North,360,10.4,10.4,51,0.00,OVC,,0.00,WeatherDisplay:10.37,2013-02-17 09:36:00,
2013-02-17 04:41:00,22.5,7.0,29.77,North,360,10.4,10.4,51,0.00,OVC,,0.00,WeatherDisplay:10.37,2013-02-17 09:41:00,
2013-02-17 04:46:00,22.5,7.0,29.77,North,360,10.4,10.4,51,0.00,OVC,,0.00,WeatherDisplay:10.37,2013-02-17 09:46:00,
2013-02-17 04:51:00,22.5,7.0,29.77,North,360,10.4,10.4,51,0.00,OVC,,0.00,WeatherDisplay:10.37,2013-02-17 09:51:00,
2013-02-17 04:56:00,22.5,7.0,29.77,North,360,10.4,10.4,51,0.00,OVC,,0.00,WeatherDisplay:10.37,2013-02-17 09:56:00,
2013-02-17 05:02:00,22.5,7.0,29.77,North,360,10.4,10.4,51,0.00,OVC,,0.00,WeatherDisplay:10.37,2013-02-17 10:02:00,
2013-02-17 05:07:00,22.3,6.9,29.77,North,360,10.4,10.4,51,0.00,OVC,,0.00,WeatherDisplay:10.37,2013-02-17 10:07:00,
2013-02-17 05:12:00,22.3,6.9,29.77,North,360,10.4,10.4,51,0.00,OVC,,0.00,WeatherDisplay:10.37,2013-02-17 10:12:00,
2013-02-17 05:17:00,22.3,6.0,29.77,North,360,8.1,10.4,49,0.00,OVC,,0.00,WeatherDisplay:10.37,2013-02-17 10:17:00,
2013-02-17 05:22:00,22.3,6.0,29.77,North,360,8.1,8.1,49,0.00,OVC,,0.00,WeatherDisplay:10.37,2013-02-17 10:22:00,
2013-02-17 05:27:00,22.3,6.0,29.77,North,360,8.1,8.1,49,0.00,OVC,,0.00,WeatherDisplay:10.37,2013-02-17 10:27:00,
2013-02-17 05:32:00,22.3,6.0,29.77,North,360,8.1,8.1,49,0.00,OVC,,0.00,WeatherDisplay:10.37,2013-02-17 10:32:00,
2013-02-17 05:37:00,22.1,5.8,29.77,North,360,8.1,8.1,49,0.00,OVC,,0.00,WeatherDisplay:10.37,2013-02-17 10:37:00,
2013-02-17 05:42:00,22.1,5.8,29.77,North,360,8.1,8.1,49,0.00,OVC,,0.00,WeatherDisplay:10.37,2013-02-17 10:42:00,
2013-02-17 05:47:00,22.1,5.8,29.77,North,360,8.1,8.1,49,0.00,OVC,,0.00,WeatherDisplay:10.37,2013-02-17 10:47:00,
2013-02-17 05:52:00,21.9,5.7,29.77,North,360,8.1,8.1,49,0.00,OVC,,0.00,WeatherDisplay:10.37,2013-02-17 10:52:00,
2013-02-17 05:57:00,21.7,5.5,29.77,North,360,8.1,8.1,49,0.00,OVC,,0.00,WeatherDisplay:10.37,2013-02-17 10:57:00,
2013-02-17 06:02:00,21.7,5.5,29.77,North,360,8.1,8.1,49,0.00,OVC,,0.00,WeatherDisplay:10.37,2013-02-17 11:02:00,
2013-02-17 06:07:00,21.6,5.3,29.77,North,360,8.1,8.1,49,0.00,OVC,,0.00,WeatherDisplay:10.37,2013-02-17 11:07:00,
2013-02-17 06:12:00,21.4,5.2,29.77,North,360,8.1,8.1,49,0.00,OVC,,0.00,WeatherDisplay:10.37,2013-02-17 11:12:00,
2013-02-17 06:17:00,21.4,8.1,29.77,North,360,8.1,8.1,56,0.00,OVC,,0.00,WeatherDisplay:10.37,2013-02-17 11:17:00,
2013-02-17 06:22:00,21.4,8.1,29.77,North,360,8.1,8.1,56,0.00,OVC,,0.00,WeatherDisplay:10.37,2013-02-17 11:22:00,
2013-02-17 06:27:00,21.4,8.1,29.77,North,360,8.1,8.1,56,0.00,OVC,,0.00,WeatherDisplay:10.37,2013-02-17 11:27:00,
2013-02-17 06:32:00,21.2,7.9,29.77,North,360,8.1,8.1,56,0.00,OVC,,0.00,WeatherDisplay:10.37,2013-02-17 11:32:00,
2013-02-17 06:37:00,21.2,7.9,29.77,North,360,8.1,8.1,56,0.00,OVC,,0.00,WeatherDisplay:10.37,2013-02-17 11:37:00,
2013-02-17 06:42:00,21.0,7.8,29.75,North,360,8.1,8.1,56,0.00,OVC,,0.00,WeatherDisplay:10.37,2013-02-17 11:42:00,
2013-02-17 06:47:00,21.0,7.8,29.75,North,360,8.1,8.1,56,0.00,OVC,,0.00,WeatherDisplay:10.37,2013-02-17 11:47:00,
2013-02-17 06:52:00,20.8,7.6,29.75,North,360,8.1,8.1,56,0.00,OVC,,0.00,WeatherDisplay:10.37,2013-02-17 11:52:00,
2013-02-17 06:57:00,20.8,7.6,29.75,North,360,8.1,8.1,56,0.00,OVC,,0.00,WeatherDisplay:10.37,2013-02-17 11:57:00,
2013-02-17 07:02:00,20.8,7.6,29.75,North,360,8.1,8.1,56,0.00,OVC,,0.00,WeatherDisplay:10.37,2013-02-17 12:02:00,
2013-02-17 07:07:00,20.8,7.6,29.75,North,360,8.1,8.1,56,0.00,OVC,,0.00,WeatherDisplay:10.37,2013-02-17 12:07:00,
2013-02-17 07:12:00,20.8,7.6,29.75,North,360,8.1,8.1,56,0.00,OVC,,0.00,WeatherDisplay:10.37,2013-02-17 12:12:00,
2013-02-17 07:17:00,20.8,8.7,29.75,North,10,9.2,9.2,59,0.00,OVC,,0.00,WeatherDisplay:10.37,2013-02-17 12:17:00,
2013-02-17 07:22:00,20.8,8.7,29.75,North,10,9.2,9.2,59,0.00,OVC,,0.00,WeatherDisplay:10.37,2013-02-17 12:22:00,
2013-02-17 07:27:00,20.8,8.7,29.75,North,10,9.2,9.2,59,0.00,OVC,,0.00,WeatherDisplay:10.37,2013-02-17 12:27:00,
2013-02-17 07:32:00,21.0,8.9,29.75,North,10,9.2,9.2,59,0.00,OVC,,0.00,WeatherDisplay:10.37,2013-02-17 12:32:00,
2013-02-17 07:37:00,21.2,9.1,29.75,North,10,9.2,9.2,59,0.00,OVC,,0.00,WeatherDisplay:10.37,2013-02-17 12:37:00,
2013-02-17 07:42:00,21.4,9.3,29.75,North,10,9.2,9.2,59,0.00,OVC,,0.00,WeatherDisplay:10.37,2013-02-17 12:42:00,
2013-02-17 07:47:00,21.2,9.1,29.75,North,10,9.2,9.2,59,0.00,OVC,,0.00,WeatherDisplay:10.37,2013-02-17 12:47:00,
2013-02-17 07:52:00,21.4,9.3,29.75,North,10,9.2,9.2,59,0.00,OVC,,0.00,WeatherDisplay:10.37,2013-02-17 12:52:00,
2013-02-17 07:57:00,21.4,9.3,29.75,North,10,9.2,9.2,59,0.00,OVC,,0.00,WeatherDisplay:10.37,2013-02-17 12:57:00,
2013-02-17 08:02:00,21.6,9.4,29.75,North,10,9.2,9.2,59,0.00,OVC,,0.00,WeatherDisplay:10.37,2013-02-17 13:02:00,
2013-02-17 08:07:00,21.6,9.4,29.75,North,10,9.2,9.2,59,0.00,OVC,,0.00,WeatherDisplay:10.37,2013-02-17 13:07:00,
2013-02-17 08:12:00,21.4,9.3,29.75,North,10,9.2,9.2,59,0.00,OVC,,0.00,WeatherDisplay:10.37,2013-02-17 13:12:00,
2013-02-17 08:17:00,21.6,9.0,29.75,North,350,8.1,9.2,58,0.00,BKN,,0.00,WeatherDisplay:10.37,2013-02-17 13:17:00,
2013-02-17 08:22:00,21.6,9.0,29.75,North,350,8.1,8.1,58,0.00,BKN,,0.00,WeatherDisplay:10.37,2013-02-17 13:22:00,
2013-02-17 08:27:00,21.7,9.2,29.75,North,350,8.1,8.1,58,0.00,BKN,,0.00,WeatherDisplay:10.37,2013-02-17 13:27:00,
2013-02-17 08:32:00,21.4,8.9,29.75,North,350,8.1,8.1,58,0.00,BKN,,0.00,WeatherDisplay:10.37,2013-02-17 13:32:00,
2013-02-17 08:37:00,21.7,9.2,29.75,North,350,8.1,8.1,58,0.00,BKN,,0.00,WeatherDisplay:10.37,2013-02-17 13:37:00,
2013-02-17 08:42:00,21.9,9.4,29.75,North,350,8.1,8.1,58,0.00,BKN,,0.00,WeatherDisplay:10.37,2013-02-17 13:42:00,
2013-02-17 08:47:00,21.7,9.2,29.75,North,350,8.1,8.1,58,0.00,BKN,,0.00,WeatherDisplay:10.37,2013-02-17 13:47:00,
2013-02-17 08:52:00,21.9,9.4,29.75,North,350,8.1,8.1,58,0.00,BKN,,0.00,WeatherDisplay:10.37,2013-02-17 13:52:00,
2013-02-17 08:57:00,21.7,9.2,29.75,North,350,8.1,8.1,58,0.00,BKN,,0.00,WeatherDisplay:10.37,2013-02-17 13:57:00,
2013-02-17 09:02:00,21.7,3.1,29.75,NW,320,17.3,28.8,44,0.00,BKN,,0.00,WeatherDisplay:10.37,2013-02-17 14:02:00,
2013-02-17 09:07:00,21.9,3.3,29.75,NW,320,17.3,28.8,44,0.00,BKN,,0.00,WeatherDisplay:10.37,2013-02-17 14:07:00,
2013-02-17 09:12:00,21.9,3.3,29.72,NW,320,17.3,28.8,44,0.00,BKN,,0.00,WeatherDisplay:10.37,2013-02-17 14:12:00,
2013-02-17 09:17:00,21.9,3.3,29.72,NW,320,17.3,28.8,44,0.00,BKN,,0.00,WeatherDisplay:10.37,2013-02-17 14:17:00,
2013-02-17 09:22:00,21.7,3.1,29.72,NW,320,17.3,28.8,44,0.00,BKN,,0.00,WeatherDisplay:10.37,2013-02-17 14:22:00,
2013-02-17 09:27:00,22.1,3.5,29.72,NW,320,17.3,28.8,44,0.00,BKN,,0.00,WeatherDisplay:10.37,2013-02-17 14:27:00,
2013-02-17 09:32:00,21.9,3.3,29.72,NW,320,17.3,28.8,44,0.00,BKN,,0.00,WeatherDisplay:10.37,2013-02-17 14:32:00,
2013-02-17 09:37:00,21.9,3.3,29.72,NW,320,17.3,28.8,44,0.00,BKN,,0.00,WeatherDisplay:10.37,2013-02-17 14:37:00,
2013-02-17 09:42:00,21.9,3.3,29.75,NW,320,17.3,28.8,44,0.00,BKN,,0.00,WeatherDisplay:10.37,2013-02-17 14:42:00,
2013-02-17 09:48:00,22.1,3.5,29.75,NW,320,17.3,28.8,44,0.00,BKN,,0.00,WeatherDisplay:10.37,2013-02-17 14:48:00,
2013-02-17 09:53:00,22.6,4.0,29.75,NW,320,17.3,28.8,44,0.00,BKN,,0.00,WeatherDisplay:10.37,2013-02-17 14:53:00,
2013-02-17 09:58:00,22.3,3.6,29.72,NW,320,17.3,28.8,44,0.00,BKN,,0.00,WeatherDisplay:10.37,2013-02-17 14:58:00,
2013-02-17 10:03:00,22.5,3.8,29.72,NW,320,17.3,28.8,44,0.00,BKN,,0.00,WeatherDisplay:10.37,2013-02-17 15:03:00,
2013-02-17 10:08:00,22.5,3.8,29.72,NW,320,17.3,28.8,44,0.00,BKN,,0.00,WeatherDisplay:10.37,2013-02-17 15:08:00,
2013-02-17 10:13:00,22.6,4.0,29.72,NW,320,17.3,28.8,44,0.00,BKN,,0.00,WeatherDisplay:10.37,2013-02-17 15:13:00,
2013-02-17 10:18:00,22.5,1.7,29.72,NW,320,20.7,34.5,40,0.00,BKN,,0.00,WeatherDisplay:10.37,2013-02-17 15:18:00,
2013-02-17 10:23:00,22.5,1.7,29.72,NW,320,20.7,34.5,40,0.00,BKN,,0.00,WeatherDisplay:10.37,2013-02-17 15:23:00,
2013-02-17 10:28:00,22.8,2.1,29.72,NW,320,20.7,34.5,40,0.00,BKN,,0.00,WeatherDisplay:10.37,2013-02-17 15:28:00,
2013-02-17 10:33:00,22.8,2.1,29.72,NW,320,20.7,34.5,40,0.00,BKN,,0.00,WeatherDisplay:10.37,2013-02-17 15:33:00,
2013-02-17 10:38:00,22.8,2.1,29.72,NW,320,20.7,34.5,40,0.00,BKN,,0.00,WeatherDisplay:10.37,2013-02-17 15:38:00,
2013-02-17 10:43:00,22.8,2.1,29.72,NW,320,20.7,34.5,40,0.00,BKN,,0.00,WeatherDisplay:10.37,2013-02-17 15:43:00,
2013-02-17 10:48:00,23.0,2.2,29.72,NW,320,20.7,34.5,40,0.00,BKN,,0.00,WeatherDisplay:10.37,2013-02-17 15:48:00,
2013-02-17 10:53:00,23.4,2.6,29.72,NW,320,20.7,34.5,40,0.00,BKN,,0.00,WeatherDisplay:10.37,2013-02-17 15:53:00,
2013-02-17 10:58:00,23.5,2.7,29.72,NW,320,20.7,34.5,40,0.00,BKN,,0.00,WeatherDisplay:10.37,2013-02-17 15:58:00,
2013-02-17 11:03:00,23.9,3.0,29.72,NW,320,20.7,34.5,40,0.00,BKN,,0.00,WeatherDisplay:10.37,2013-02-17 16:03:00,
2013-02-17 11:08:00,24.1,3.2,29.72,NW,320,20.7,34.5,40,0.00,BKN,,0.00,WeatherDisplay:10.37,2013-02-17 16:08:00,
2013-02-17 11:13:00,23.5,2.7,29.72,NW,320,20.7,34.5,40,0.00,BKN,,0.00,WeatherDisplay:10.37,2013-02-17 16:13:00,
2013-02-17 11:18:00,23.7,3.9,29.72,NW,310,15.0,34.5,42,0.00,BKN,,0.00,WeatherDisplay:10.37,2013-02-17 16:18:00,
2013-02-17 11:23:00,23.5,3.8,29.72,NW,310,15.0,26.5,42,0.00,BKN,,0.00,WeatherDisplay:10.37,2013-02-17 16:23:00,
2013-02-17 11:28:00,23.9,4.1,29.72,NW,310,15.0,26.5,42,0.00,BKN,,0.00,WeatherDisplay:10.37,2013-02-17 16:28:00,
2013-02-17 11:33:00,23.7,3.9,29.72,NW,310,15.0,26.5,42,0.00,BKN,,0.00,WeatherDisplay:10.37,2013-02-17 16:33:00,
2013-02-17 11:38:00,23.7,3.9,29.72,NW,310,15.0,26.5,42,0.00,BKN,,0.00,WeatherDisplay:10.37,2013-02-17 16:38:00,
2013-02-17 11:43:00,23.7,3.9,29.72,NW,310,15.0,26.5,42,0.00,BKN,,0.00,WeatherDisplay:10.37,2013-02-17 16:43:00,
2013-02-17 11:48:00,23.7,3.9,29.72,NW,310,15.0,26.5,42,0.00,BKN,,0.00,WeatherDisplay:10.37,2013-02-17 16:48:00,
2013-02-17 11:53:00,24.4,4.6,29.72,NW,310,15.0,26.5,42,0.00,BKN,,0.00,WeatherDisplay:10.37,2013-02-17 16:53:00,
2013-02-17 11:58:00,24.4,4.6,29.72,NW,310,15.0,26.5,42,0.00,BKN,,0.00,WeatherDisplay:10.37,2013-02-17 16:58:00,
2013-02-17 12:03:00,24.6,4.8,29.72,NW,310,15.0,26.5,42,0.00,BKN,,0.00,WeatherDisplay:10.37,2013-02-17 17:03:00,
2013-02-17 12:08:00,25.0,5.1,29.72,NW,310,15.0,26.5,42,0.00,BKN,,0.00,WeatherDisplay:10.37,2013-02-17 17:08:00,
2013-02-17 12:13:00,24.6,4.8,29.72,NW,310,15.0,26.5,42,0.00,BKN,,0.00,WeatherDisplay:10.37,2013-02-17 17:13:00,
2013-02-17 12:18:00,24.8,3.3,29.72,WNW,300,17.3,32.2,39,0.00,BKN,,0.00,WeatherDisplay:10.37,2013-02-17 17:18:00,
2013-02-17 12:23:00,24.8,3.3,29.72,WNW,300,17.3,32.2,39,0.00,BKN,,0.00,WeatherDisplay:10.37,2013-02-17 17:23:00,
2013-02-17 12:28:00,24.6,3.1,29.72,WNW,300,17.3,32.2,39,0.00,BKN,,0.00,WeatherDisplay:10.37,2013-02-17 17:28:00,
2013-02-17 12:33:00,24.6,3.1,29.72,WNW,300,17.3,32.2,39,0.00,BKN,,0.00,WeatherDisplay:10.37,2013-02-17 17:33:00,
2013-02-17 12:38:00,25.0,3.5,29.72,WNW,300,17.3,32.2,39,0.00,BKN,,0.00,WeatherDisplay:10.37,2013-02-17 17:38:00,
2013-02-17 12:43:00,25.0,3.5,29.72,WNW,300,17.3,32.2,39,0.00,BKN,,0.00,WeatherDisplay:10.37,2013-02-17 17:43:00,
2013-02-17 12:48:00,25.0,3.5,29.72,WNW,300,17.3,32.2,39,0.00,BKN,,0.00,WeatherDisplay:10.37,2013-02-17 17:48:00,
2013-02-17 12:53:00,24.8,3.3,29.72,WNW,300,17.3,32.2,39,0.00,BKN,,0.00,WeatherDisplay:10.37,2013-02-17 17:53:00,
2013-02-17 12:58:00,24.4,3.0,29.72,WNW,300,17.3,32.2,39,0.00,BKN,,0.00,WeatherDisplay:10.37,2013-02-17 17:58:00,
2013-02-17 13:03:00,24.6,3.1,29.72,WNW,300,17.3,32.2,39,0.00,BKN,,0.00,WeatherDisplay:10.37,2013-02-17 18:03:00,
2013-02-17 13:08:00,24.8,3.3,29.72,WNW,300,17.3,32.2,39,0.00,BKN,,0.00,WeatherDisplay:10.37,2013-02-17 18:08:00,
2013-02-17 13:13:00,24.8,3.3,29.72,WNW,300,17.3,32.2,39,0.00,BKN,,0.00,WeatherDisplay:10.37,2013-02-17 18:13:00,
2013-02-17 13:18:00,25.3,2.7,29.72,WNW,300,17.3,34.5,37,0.00,BKN,,0.00,WeatherDisplay:10.37,2013-02-17 18:18:00,
2013-02-17 13:23:00,25.7,3.0,29.72,WNW,300,17.3,34.5,37,0.00,BKN,,0.00,WeatherDisplay:10.37,2013-02-17 18:23:00,
2013-02-17 13:28:00,25.3,2.7,29.72,WNW,300,17.3,34.5,37,0.00,BKN,,0.00,WeatherDisplay:10.37,2013-02-17 18:28:00,
2013-02-17 13:33:00,25.2,2.5,29.72,WNW,300,17.3,34.5,37,0.00,BKN,,0.00,WeatherDisplay:10.37,2013-02-17 18:33:00,
2013-02-17 13:38:00,25.3,2.7,29.72,WNW,300,17.3,34.5,37,0.00,BKN,,0.00,WeatherDisplay:10.37,2013-02-17 18:38:00,
2013-02-17 13:43:00,25.3,2.7,29.72,WNW,300,17.3,34.5,37,0.00,BKN,,0.00,WeatherDisplay:10.37,2013-02-17 18:43:00,
2013-02-17 13:48:00,25.3,2.7,29.72,WNW,300,17.3,34.5,37,0.00,BKN,,0.00,WeatherDisplay:10.37,2013-02-17 18:48:00,
2013-02-17 13:53:00,25.3,2.7,29.72,WNW,300,17.3,34.5,37,0.00,BKN,,0.00,WeatherDisplay:10.37,2013-02-17 18:53:00,
2013-02-17 13:58:00,25.3,2.7,29.72,WNW,300,17.3,34.5,37,0.00,BKN,,0.00,WeatherDisplay:10.37,2013-02-17 18:58:00,
2013-02-17 14:03:00,25.3,2.7,29.72,WNW,300,17.3,34.5,37,0.00,BKN,,0.00,WeatherDisplay:10.37,2013-02-17 19:03:00,
2013-02-17 14:08:00,25.5,2.8,29.72,WNW,300,17.3,34.5,37,0.00,BKN,,0.00,WeatherDisplay:10.37,2013-02-17 19:08:00,
2013-02-17 14:13:00,25.5,2.8,29.72,WNW,300,17.3,34.5,37,0.00,BKN,,0.00,WeatherDisplay:10.37,2013-02-17 19:13:00,
2013-02-17 14:18:00,25.3,2.1,29.72,WNW,300,25.3,41.4,36,0.00,BKN,,0.00,WeatherDisplay:10.37,2013-02-17 19:18:00,
2013-02-17 14:23:00,25.2,1.9,29.72,WNW,300,25.3,41.4,36,0.00,BKN,,0.00,WeatherDisplay:10.37,2013-02-17 19:23:00,
2013-02-17 14:28:00,25.3,2.1,29.72,WNW,300,25.3,41.4,36,0.00,BKN,,0.00,WeatherDisplay:10.37,2013-02-17 19:28:00,
2013-02-17 14:33:00,25.3,2.1,29.72,WNW,300,25.3,41.4,36,0.00,BKN,,0.00,WeatherDisplay:10.37,2013-02-17 19:33:00,
2013-02-17 14:38:00,25.0,1.7,29.72,WNW,300,25.3,41.4,36,0.00,BKN,,0.00,WeatherDisplay:10.37,2013-02-17 19:38:00,
2013-02-17 14:43:00,25.0,1.7,29.72,WNW,300,25.3,41.4,36,0.00,BKN,,0.00,WeatherDisplay:10.37,2013-02-17 19:43:00,
2013-02-17 14:48:00,25.2,1.9,29.72,WNW,300,25.3,41.4,36,0.00,BKN,,0.00,WeatherDisplay:10.37,2013-02-17 19:48:00,
2013-02-17 14:53:00,25.2,1.9,29.72,WNW,300,25.3,41.4,36,0.00,BKN,,0.00,WeatherDisplay:10.37,2013-02-17 19:53:00,
2013-02-17 14:58:00,25.2,1.9,29.72,WNW,300,25.3,41.4,36,0.00,BKN,,0.00,WeatherDisplay:10.37,2013-02-17 19:58:00,
2013-02-17 15:03:00,24.6,1.4,29.72,WNW,300,25.3,41.4,36,0.00,BKN,,0.00,WeatherDisplay:10.37,2013-02-17 20:03:00,
2013-02-17 15:08:00,24.4,1.3,29.72,WNW,300,25.3,41.4,36,0.00,BKN,,0.00,WeatherDisplay:10.37,2013-02-17 20:08:00,
2013-02-17 15:13:00,24.4,1.3,29.72,WNW,300,25.3,41.4,36,0.00,BKN,,0.00,WeatherDisplay:10.37,2013-02-17 20:13:00,
2013-02-17 15:18:00,24.3,-2.1,29.72,WNW,290,26.5,41.4,31,0.00,BKN,,0.00,WeatherDisplay:10.37,2013-02-17 20:18:00,
2013-02-17 15:23:00,24.1,-2.2,29.72,WNW,290,26.5,41.4,31,0.00,BKN,,0.00,WeatherDisplay:10.37,2013-02-17 20:23:00,
2013-02-17 15:28:00,24.1,-2.2,29.75,WNW,290,26.5,41.4,31,0.00,BKN,,0.00,WeatherDisplay:10.37,2013-02-17 20:28:00,
2013-02-17 15:33:00,23.9,-2.4,29.75,WNW,290,26.5,41.4,31,0.00,BKN,,0.00,WeatherDisplay:10.37,2013-02-17 20:33:00,
2013-02-17 15:38:00,23.7,-2.6,29.75,WNW,290,26.5,41.4,31,0.00,BKN,,0.00,WeatherDisplay:10.37,2013-02-17 20:38:00,
2013-02-17 15:43:00,23.5,-2.7,29.75,WNW,290,26.5,41.4,31,0.00,BKN,,0.00,WeatherDisplay:10.37,2013-02-17 20:43:00,
2013-02-17 15:48:00,23.4,-2.9,29.75,WNW,290,26.5,41.4,31,0.00,BKN,,0.00,WeatherDisplay:10.37,2013-02-17 20:48:00,
2013-02-17 15:54:00,23.0,-3.2,29.75,WNW,290,26.5,41.4,31,0.00,BKN,,0.00,WeatherDisplay:10.37,2013-02-17 20:54:00,
2013-02-17 15:59:00,22.8,-3.4,29.75,WNW,290,26.5,41.4,31,0.00,BKN,,0.00,WeatherDisplay:10.37,2013-02-17 20:59:00,
2013-02-17 16:03:00,22.8,-1.4,29.75,WNW,300,26.5,52.9,34,0.00,BKN,,0.00,WeatherDisplay:10.37,2013-02-17 21:03:00,
2013-02-17 16:09:00,22.3,-1.9,29.75,WNW,300,26.5,52.9,34,0.00,BKN,,0.00,WeatherDisplay:10.37,2013-02-17 21:09:00,
2013-02-17 16:14:00,22.1,-2.0,29.75,WNW,300,26.5,52.9,34,0.00,BKN,,0.00,WeatherDisplay:10.37,2013-02-17 21:14:00,
2013-02-17 16:19:00,21.9,-2.2,29.75,WNW,300,26.5,52.9,34,0.00,BKN,,0.00,WeatherDisplay:10.37,2013-02-17 21:19:00,
2013-02-17 16:24:00,21.7,-2.4,29.75,WNW,300,26.5,52.9,34,0.00,BKN,,0.00,WeatherDisplay:10.37,2013-02-17 21:24:00,
2013-02-17 16:29:00,21.7,-2.4,29.75,WNW,300,26.5,52.9,34,0.00,BKN,,0.00,WeatherDisplay:10.37,2013-02-17 21:29:00,
2013-02-17 16:34:00,21.6,-2.5,29.75,WNW,300,26.5,52.9,34,0.00,BKN,,0.00,WeatherDisplay:10.37,2013-02-17 21:34:00,
2013-02-17 16:39:00,21.2,-2.9,29.75,WNW,300,26.5,52.9,34,0.00,BKN,,0.00,WeatherDisplay:10.37,2013-02-17 21:39:00,
2013-02-17 16:44:00,21.0,-3.0,29.77,WNW,300,26.5,52.9,34,0.00,BKN,,0.00,WeatherDisplay:10.37,2013-02-17 21:44:00,
2013-02-17 16:49:00,21.0,-3.0,29.77,WNW,300,26.5,52.9,34,0.00,BKN,,0.00,WeatherDisplay:10.37,2013-02-17 21:49:00,
2013-02-17 16:54:00,20.8,-3.2,29.77,WNW,300,26.5,52.9,34,0.00,BKN,,0.00,WeatherDisplay:10.37,2013-02-17 21:54:00,
2013-02-17 16:59:00,20.7,-3.3,29.77,WNW,300,26.5,52.9,34,0.00,BKN,,0.00,WeatherDisplay:10.37,2013-02-17 21:59:00,
2013-02-17 17:04:00,20.5,2.9,29.77,WNW,290,27.6,42.6,46,0.00,BKN,,0.00,WeatherDisplay:10.37,2013-02-17 22:04:00,
2013-02-17 17:09:00,20.3,2.8,29.77,WNW,290,27.6,42.6,46,0.00,BKN,,0.00,WeatherDisplay:10.37,2013-02-17 22:09:00,
2013-02-17 17:14:00,20.1,2.6,29.81,WNW,290,27.6,42.6,46,0.00,BKN,,0.00,WeatherDisplay:10.37,2013-02-17 22:14:00,
2013-02-17 17:19:00,19.9,2.5,29.81,WNW,290,27.6,42.6,46,0.00,BKN,,0.00,WeatherDisplay:10.37,2013-02-17 22:19:00,
2013-02-17 17:24:00,19.4,2.0,29.81,WNW,290,27.6,42.6,46,0.00,BKN,,0.00,WeatherDisplay:10.37,2013-02-17 22:24:00,
2013-02-17 17:29:00,19.0,1.6,29.81,WNW,290,27.6,42.6,46,0.00,BKN,,0.00,WeatherDisplay:10.37,2013-02-17 22:29:00,
2013-02-17 17:34:00,18.7,1.3,29.81,WNW,290,27.6,42.6,46,0.00,BKN,,0.00,WeatherDisplay:10.37,2013-02-17 22:34:00,
2013-02-17 17:39:00,18.5,1.1,29.81,WNW,290,27.6,42.6,46,0.00,BKN,,0.00,WeatherDisplay:10.37,2013-02-17 22:39:00,
2013-02-17 17:44:00,18.3,1.0,29.81,WNW,290,27.6,42.6,46,0.00,BKN,,0.00,WeatherDisplay:10.37,2013-02-17 22:44:00,
2013-02-17 17:49:00,18.1,0.8,29.81,WNW,290,27.6,42.6,46,0.00,BKN,,0.00,WeatherDisplay:10.37,2013-02-17 22:49:00,
2013-02-17 17:54:00,18.1,0.8,29.81,WNW,290,27.6,42.6,46,0.00,BKN,,0.00,WeatherDisplay:10.37,2013-02-17 22:54:00,
2013-02-17 17:59:00,18.0,0.6,29.83,WNW,290,27.6,42.6,46,0.00,BKN,,0.00,WeatherDisplay:10.37,2013-02-17 22:59:00,
2013-02-17 18:04:00,17.6,2.1,29.83,WNW,300,23.0,35.7,50,0.00,BKN,,0.00,WeatherDisplay:10.37,2013-02-17 23:04:00,
2013-02-17 18:09:00,17.6,2.1,29.83,WNW,300,23.0,35.7,50,0.00,BKN,,0.00,WeatherDisplay:10.37,2013-02-17 23:09:00,
2013-02-17 18:14:00,17.4,1.9,29.83,WNW,300,23.0,35.7,50,0.00,BKN,,0.00,WeatherDisplay:10.37,2013-02-17 23:14:00,
2013-02-17 18:19:00,17.4,1.9,29.83,WNW,300,23.0,35.7,50,0.00,BKN,,0.00,WeatherDisplay:10.37,2013-02-17 23:19:00,
2013-02-17 18:24:00,17.2,1.8,29.83,WNW,300,23.0,35.7,50,0.00,BKN,,0.00,WeatherDisplay:10.37,2013-02-17 23:24:00,
2013-02-17 18:29:00,17.1,1.6,29.86,WNW,300,23.0,35.7,50,0.00,BKN,,0.00,WeatherDisplay:10.37,2013-02-17 23:29:00,
2013-02-17 18:34:00,16.9,1.4,29.86,WNW,300,23.0,35.7,50,0.00,BKN,,0.00,WeatherDisplay:10.37,2013-02-17 23:34:00,
2013-02-17 18:39:00,16.7,1.3,29.86,WNW,300,23.0,35.7,50,0.00,BKN,,0.00,WeatherDisplay:10.37,2013-02-17 23:39:00,
2013-02-17 18:44:00,16.7,1.3,29.86,WNW,300,23.0,35.7,50,0.00,BKN,,0.00,WeatherDisplay:10.37,2013-02-17 23:44:00,
2013-02-17 18:49:00,16.7,1.3,29.86,WNW,300,23.0,35.7,50,0.00,BKN,,0.00,WeatherDisplay:10.37,2013-02-17 23:49:00,
2013-02-17 18:54:00,16.5,1.1,29.86,WNW,300,23.0,35.7,50,0.00,BKN,,0.00,WeatherDisplay:10.37,2013-02-17 23:54:00,
2013-02-17 18:59:00,16.3,0.9,29.86,WNW,300,23.0,35.7,50,0.00,BKN,,0.00,WeatherDisplay:10.37,2013-02-17 23:59:00,
2013-02-17 19:04:00,16.2,0.8,29.86,WNW,290,28.8,47.2,50,0.00,BKN,,0.00,WeatherDisplay:10.37,2013-02-18 00:04:00,
2013-02-17 19:09:00,16.2,0.8,29.86,WNW,290,28.8,47.2,50,0.00,BKN,,0.00,WeatherDisplay:10.37,2013-02-18 00:09:00,
2013-02-17 19:14:00,16.2,0.8,29.89,WNW,290,28.8,47.2,50,0.00,BKN,,0.00,WeatherDisplay:10.37,2013-02-18 00:14:00,
2013-02-17 19:19:00,16.0,0.6,29.89,WNW,290,28.8,47.2,50,0.00,BKN,,0.00,WeatherDisplay:10.37,2013-02-18 00:19:00,
2013-02-17 19:24:00,15.8,0.4,29.89,WNW,290,28.8,47.2,50,0.00,BKN,,0.00,WeatherDisplay:10.37,2013-02-18 00:24:00,
2013-02-17 19:29:00,15.8,0.4,29.86,WNW,290,28.8,47.2,50,0.00,BKN,,0.00,WeatherDisplay:10.37,2013-02-18 00:29:00,
2013-02-17 19:34:00,15.6,0.3,29.86,WNW,290,28.8,47.2,50,0.00,BKN,,0.00,WeatherDisplay:10.37,2013-02-18 00:34:00,
2013-02-17 19:39:00,15.6,0.3,29.86,WNW,290,28.8,47.2,50,0.00,BKN,,0.00,WeatherDisplay:10.37,2013-02-18 00:39:00,
2013-02-17 19:44:00,15.4,0.1,29.89,WNW,290,28.8,47.2,50,0.00,BKN,,0.00,WeatherDisplay:10.37,2013-02-18 00:44:00,
2013-02-17 19:49:00,15.4,0.1,29.89,WNW,290,28.8,47.2,50,0.00,BKN,,0.00,WeatherDisplay:10.37,2013-02-18 00:49:00,
2013-02-17 19:54:00,15.4,0.1,29.89,WNW,290,28.8,47.2,50,0.00,BKN,,0.00,WeatherDisplay:10.37,2013-02-18 00:54:00,
2013-02-17 19:59:00,15.3,-0.1,29.89,WNW,290,28.8,47.2,50,0.00,BKN,,0.00,WeatherDisplay:10.37,2013-02-18 00:59:00,
2013-02-17 20:04:00,15.1,-0.2,29.89,WNW,300,20.7,42.6,50,0.00,SCT,,0.00,WeatherDisplay:10.37,2013-02-18 01:04:00,
2013-02-17 20:09:00,15.3,-0.1,29.89,WNW,300,20.7,42.6,50,0.00,SCT,,0.00,WeatherDisplay:10.37,2013-02-18 01:09:00,
2013-02-17 20:14:00,15.1,-0.2,29.89,WNW,300,20.7,42.6,50,0.00,SCT,,0.00,WeatherDisplay:10.37,2013-02-18 01:14:00,
2013-02-17 20:19:00,15.1,-0.2,29.89,WNW,300,20.7,42.6,50,0.00,SCT,,0.00,WeatherDisplay:10.37,2013-02-18 01:19:00,
2013-02-17 20:24:00,15.1,-0.2,29.89,WNW,300,20.7,42.6,50,0.00,SCT,,0.00,WeatherDisplay:10.37,2013-02-18 01:24:00,
2013-02-17 20:29:00,15.1,-0.2,29.89,WNW,300,20.7,42.6,50,0.00,SCT,,0.00,WeatherDisplay:10.37,2013-02-18 01:29:00,
2013-02-17 20:34:00,15.1,-0.2,29.89,WNW,300,20.7,42.6,50,0.00,SCT,,0.00,WeatherDisplay:10.37,2013-02-18 01:34:00,
2013-02-17 20:39:00,15.1,-0.2,29.89,WNW,300,20.7,42.6,50,0.00,SCT,,0.00,WeatherDisplay:10.37,2013-02-18 01:39:00,
2013-02-17 20:44:00,14.9,-0.4,29.89,WNW,300,20.7,42.6,50,0.00,SCT,,0.00,WeatherDisplay:10.37,2013-02-18 01:44:00,
2013-02-17 20:49:00,15.1,-0.2,29.89,WNW,300,20.7,42.6,50,0.00,SCT,,0.00,WeatherDisplay:10.37,2013-02-18 01:49:00,
2013-02-17 20:54:00,15.1,-0.2,29.89,WNW,300,20.7,42.6,50,0.00,SCT,,0.00,WeatherDisplay:10.37,2013-02-18 01:54:00,
2013-02-17 20:59:00,14.9,-0.4,29.89,WNW,300,20.7,42.6,50,0.00,SCT,,0.00,WeatherDisplay:10.37,2013-02-18 01:59:00,
2013-02-17 21:04:00,14.7,0.3,29.89,WNW,300,23.0,40.3,52,0.00,BKN,,0.00,WeatherDisplay:10.37,2013-02-18 02:04:00,
2013-02-17 21:09:00,14.9,0.4,29.89,WNW,300,23.0,40.3,52,0.00,BKN,,0.00,WeatherDisplay:10.37,2013-02-18 02:09:00,
2013-02-17 21:14:00,14.7,0.3,29.92,WNW,300,23.0,40.3,52,0.00,BKN,,0.00,WeatherDisplay:10.37,2013-02-18 02:14:00,
2013-02-17 21:19:00,14.7,0.3,29.92,WNW,300,23.0,40.3,52,0.00,BKN,,0.00,WeatherDisplay:10.37,2013-02-18 02:19:00,
2013-02-17 21:24:00,14.5,0.1,29.92,WNW,300,23.0,40.3,52,0.00,BKN,,0.00,WeatherDisplay:10.37,2013-02-18 02:24:00,
2013-02-17 21:29:00,14.5,0.1,29.92,WNW,300,23.0,40.3,52,0.00,BKN,,0.00,WeatherDisplay:10.37,2013-02-18 02:29:00,
2013-02-17 21:34:00,14.5,0.1,29.92,WNW,300,23.0,40.3,52,0.00,BKN,,0.00,WeatherDisplay:10.37,2013-02-18 02:34:00,
2013-02-17 21:39:00,14.5,0.1,29.92,WNW,300,23.0,40.3,52,0.00,BKN,,0.00,WeatherDisplay:10.37,2013-02-18 02:39:00,
2013-02-17 21:44:00,14.4,-0.1,29.92,WNW,300,23.0,40.3,52,0.00,BKN,,0.00,WeatherDisplay:10.37,2013-02-18 02:44:00,
2013-02-17 21:49:00,14.4,-0.1,29.92,WNW,300,23.0,40.3,52,0.00,BKN,,0.00,WeatherDisplay:10.37,2013-02-18 02:49:00,
2013-02-17 21:54:00,14.4,-0.1,29.92,WNW,300,23.0,40.3,52,0.00,BKN,,0.00,WeatherDisplay:10.37,2013-02-18 02:54:00,
2013-02-17 21:59:00,14.4,-0.1,29.92,WNW,300,23.0,40.3,52,0.00,BKN,,0.00,WeatherDisplay:10.37,2013-02-18 02:59:00,
2013-02-17 22:04:00,14.4,0.3,29.92,NW,310,19.6,41.4,53,0.00,BKN,,0.00,WeatherDisplay:10.37,2013-02-18 03:04:00,
2013-02-17 22:09:00,14.4,0.3,29.92,NW,310,19.6,41.4,53,0.00,BKN,,0.00,WeatherDisplay:10.37,2013-02-18 03:09:00,
2013-02-17 22:14:00,14.4,0.3,29.92,NW,310,19.6,41.4,53,0.00,BKN,,0.00,WeatherDisplay:10.37,2013-02-18 03:14:00,
2013-02-17 22:19:00,14.4,0.3,29.92,NW,310,19.6,41.4,53,0.00,BKN,,0.00,WeatherDisplay:10.37,2013-02-18 03:19:00,
2013-02-17 22:24:00,14.4,0.3,29.92,NW,310,19.6,41.4,53,0.00,BKN,,0.00,WeatherDisplay:10.37,2013-02-18 03:24:00,
2013-02-17 22:29:00,14.4,0.3,29.92,NW,310,19.6,41.4,53,0.00,BKN,,0.00,WeatherDisplay:10.37,2013-02-18 03:29:00,
2013-02-17 22:34:00,14.2,0.2,29.92,NW,310,19.6,41.4,53,0.00,BKN,,0.00,WeatherDisplay:10.37,2013-02-18 03:34:00,
2013-02-17 22:39:00,14.4,0.3,29.92,NW,310,19.6,41.4,53,0.00,BKN,,0.00,WeatherDisplay:10.37,2013-02-18 03:39:00,
2013-02-17 22:44:00,14.2,0.2,29.92,NW,310,19.6,41.4,53,0.00,BKN,,0.00,WeatherDisplay:10.37,2013-02-18 03:44:00,
2013-02-17 22:49:00,14.2,0.2,29.92,NW,310,19.6,41.4,53,0.00,BKN,,0.00,WeatherDisplay:10.37,2013-02-18 03:49:00,
2013-02-17 22:54:00,14.2,0.2,29.92,NW,310,19.6,41.4,53,0.00,BKN,,0.00,WeatherDisplay:10.37,2013-02-18 03:54:00,
2013-02-17 22:59:00,14.2,0.2,29.95,NW,310,19.6,41.4,53,0.00,BKN,,0.00,WeatherDisplay:10.37,2013-02-18 03:59:00,
2013-02-17 23:04:00,14.2,-1.1,29.95,NW,310,26.5,42.6,50,0.00,SCT,,0.00,WeatherDisplay:10.37,2013-02-18 04:04:00,
2013-02-17 23:09:00,14.2,-1.1,29.95,NW,310,26.5,42.6,50,0.00,SCT,,0.00,WeatherDisplay:10.37,2013-02-18 04:09:00,
2013-02-17 23:14:00,14.0,-1.3,29.95,NW,310,26.5,42.6,50,0.00,SCT,,0.00,WeatherDisplay:10.37,2013-02-18 04:14:00,
2013-02-17 23:19:00,14.0,-1.3,29.95,NW,310,26.5,42.6,50,0.00,SCT,,0.00,WeatherDisplay:10.37,2013-02-18 04:19:00,
2013-02-17 23:24:00,14.0,-1.3,29.95,NW,310,26.5,42.6,50,0.00,SCT,,0.00,WeatherDisplay:10.37,2013-02-18 04:24:00,
2013-02-17 23:29:00,13.8,-1.4,29.95,NW,310,26.5,42.6,50,0.00,SCT,,0.00,WeatherDisplay:10.37,2013-02-18 04:29:00,
2013-02-17 23:34:00,13.8,-1.4,29.95,NW,310,26.5,42.6,50,0.00,SCT,,0.00,WeatherDisplay:10.37,2013-02-18 04:34:00,
2013-02-17 23:39:00,13.8,-1.4,29.95,NW,310,26.5,42.6,50,0.00,SCT,,0.00,WeatherDisplay:10.37,2013-02-18 04:39:00,
2013-02-17 23:44:00,13.8,-1.4,29.95,NW,310,26.5,42.6,50,0.00,SCT,,0.00,WeatherDisplay:10.37,2013-02-18 04:44:00,
2013-02-17 23:49:00,13.8,-1.4,29.95,NW,310,26.5,42.6,50,0.00,SCT,,0.00,WeatherDisplay:10.37,2013-02-18 04:49:00,
2013-02-17 23:54:00,13.8,-1.4,29.95,NW,310,26.5,42.6,50,0.00,SCT,,0.00,WeatherDisplay:10.37,2013-02-18 04:54:00,
2013-02-17 23:59:00,13.8,-1.4,29.95,NW,310,26.5,42.6,50,0.00,SCT,,0.00,WeatherDisplay:10.37,2013-02-18 04:59:00,